Zurück zum Katalog

DELTA 1 DEB

AktivPO
NORAD 26837·DEBRIS·🇺🇸 United States

Gestartet Jun 12, 1975 von Vandenberg Space Force Base

Loading…

Nächste Überflüge (nächste 24 Stunden)

TLE

AktuellSource: Space-Track

Epoche: Sep 14, 2026, 03:53 UTC

1 26837U 75052KR  26257.16182368  .00000685  00000-0  18224-2 0  9990
2 26837  99.6995  64.7700 0282853  41.6738   8.0729 13.05787420263314

Verfolge DELTA 1 DEB in Echtzeit mit AllMySat

Download on the App Store